FW2475 Weather Reports


time (UTC)temp
F
wind
direction
speed
knots
gust
knots
rain 1hr
in
rain 24hr
in
rain mn
in
humidity
%
barometer
mb
20260906090026 69 51 1.7 5.2 0.00 0.00 0.00 39 1019.0
20260906084519 69 48 2.6 4.3 0.00 0.00 0.00 38 1018.8
20260906083018 69 49 2.6 5.2 0.00 0.00 0.00 38 1018.7
20260906081515 70 82 2.6 4.3 0.00 0.00 0.00 38 1018.6
20260906080016 70 43 2.6 4.3 0.00 0.00 0.00 38 1018.6
20260906074514 70 44 2.6 4.3 0.00 0.00 0.00 38 1018.6
20260906073020 70 43 1.7 3.5 0.00 0.00 0.00 38 1018.5
20260906071512 70 47 0.9 2.6 0.00 0.00 0.00 39 1018.7
20260906070011 70 44 1.7 3.5 0.00 0.00 0.00 40 1018.7
20260906064509 71 44 2.6 4.3 0.00 0.00 0.00 40 1018.7
20260906063007 71 51 1.7 4.3 0.00 0.00 0.00 40 1018.5
20260906061507 71 82 1.7 3.5 0.00 0.00 0.00 40 1018.6
20260906060006 71 69 1.7 4.3 0.00 0.00 0.00 40 1018.4
20260906054503 71 78 1.7 4.3 0.00 0.00 0.00 39 1018.4
20260906053002 72 57 2.6 5.2 0.00 0.00 0.00 40 1018.2
20260906051601 72 39 2.6 5.2 0.00 0.00 0.00 40 1018.2
20260906050121 72 45 2.6 5.2 0.00 0.00 0.00 39 1018.1
20260906044555 73 49 2.6 5.2 0.00 0.00 0.00 39 1018.2
20260906043057 73 49 2.6 4.3 0.00 0.00 0.00 39 1017.9
20260906041553 73 72 1.7 4.3 0.00 0.00 0.00 39 1018.0
20260906040053 73 61 1.7 5.2 0.00 0.00 0.00 39 1018.2
20260906034550 73 51 1.7 4.3 0.00 0.00 0.00 39 1017.8
20260906033100 73 69 0.9 4.3 0.00 0.00 0.00 39 1017.8
20260906031547 74 67 1.7 4.3 0.00 0.00 0.00 39 1017.6
20260906030047 74 61 2.6 5.2 0.00 0.00 0.00 38 1017.4
20260906024546 74 44 3.5 7.8 0.00 0.00 0.00 38 1017.4
20260906023045 74 61 4.3 7.0 0.00 0.00 0.00 38 1017.2
20260906021549 74 64 3.5 6.1 0.00 0.00 0.00 38 1017.1
20260906020049 74 34 2.6 7.8 0.00 0.00 0.00 40 1016.8
20260906014548 73 34 1.7 4.3 0.00 0.00 0.00 41 1016.6
20260906013038 73 52 1.7 4.3 0.00 0.00 0.00 42 1016.5
20260906011537 74 23 0.9 3.5 0.00 0.00 0.00 43 1016.5
20260906010036 74 18 1.7 4.3 0.00 0.00 0.00 44 1016.4
20260906004535 75 19 0.9 4.3 0.00 0.00 0.00 45 1016.0
20260906003035 76 13 3.5 7.8 0.00 0.00 0.00 45 1016.0
20260906001535 77 15 2.6 6.1 0.00 0.00 0.00 43 1015.8
20260906000040 78 23 2.6 7.0 0.00 0.00 0.00 41 1015.8
20260905234533 79 16 2.6 7.0 0.00 0.00 0.00 40 1015.7
20260905233038 80 12 5.2 8.7 0.00 0.00 0.00 38 1015.8
20260905231538 81 20 4.3 10.4 0.00 0.00 0.00 37 1015.7
20260905230030 82 12 6.1 10.4 0.00 0.00 0.00 35 1015.4
20260905224530 83 310 4.3 10.4 0.00 0.00 0.00 34 1015.1
20260905223029 85 355 6.1 11.3 0.00 0.00 0.00 32 1015.1
20260905221533 85 9 6.1 10.4 0.00 0.00 0.00 30 1014.9
20260905220026 86 23 7.8 11.3 0.00 0.00 0.00 29 1014.8
20260905214528 87 12 5.2 11.3 0.00 0.00 0.00 27 1014.7
20260905213024 87 28 4.3 12.2 0.00 0.00 0.00 26 1014.4
20260905211529 88 19 5.2 11.3 0.00 0.00 0.00 25 1014.3
20260905210019 88 5 6.1 10.4 0.00 0.00 0.00 27 1014.3
20260905204519 88 17 4.3 10.4 0.00 0.00 0.00 26 1014.4
20260905203018 89 31 5.2 8.7 0.00 0.00 0.00 26 1014.4
20260905201518 90 291 7.8 11.3 0.00 0.00 0.00 21 1014.6
20260905200016 89 328 3.5 8.7 0.00 0.00 0.00 20 1014.7
20260905194514 88 15 2.6 8.7 0.00 0.00 0.00 21 1014.8
20260905193011 89 23 1.7 8.7 0.00 0.00 0.00 21 1014.8
20260905191509 87 86 2.6 7.0 0.00 0.00 0.00 25 1015.0
20260905190008 87 43 7.0 10.4 0.00 0.00 0.00 25 1014.9
20260905184514 87 37 4.3 9.6 0.00 0.00 0.00 26 1015.3
20260905183007 87 19 1.7 7.0 0.00 0.00 0.00 26 1015.5
20260905181506 86 65 5.2 12.2 0.00 0.00 0.00 27 1015.5
20260905180006 87 47 2.6 7.8 0.00 0.00 0.00 26 1015.5
20260905174505 87 75 3.5 7.0 0.00 0.00 0.00 27 1015.4
20260905173001 86 51 0.9 5.2 0.00 0.00 0.00 27 1015.6
20260905171605 86 95 1.7 4.3 0.00 0.00 0.00 26 1015.7
20260905170056 84 215 0.9 5.2 0.00 0.00 0.00 31 1016.0
20260905164555 84 244 1.7 6.1 0.00 0.00 0.00 32 1016.1
20260905163056 84 249 2.6 7.8 0.00 0.00 0.00 31 1016.1
20260905161550 83 198 3.5 9.6 0.00 0.00 0.00 30 1016.2
20260905160047 82 179 1.7 4.3 0.00 0.00 0.00 30 1016.2
20260905154557 81 252 2.6 6.1 0.00 0.00 0.00 33 1016.4
20260905153043 81 91 0.9 7.0 0.00 0.00 0.00 33 1016.5
20260905151539 80 219 2.6 5.2 0.00 0.00 0.00 34 1016.2
20260905150039 79 156 3.5 7.8 0.00 0.00 0.00 35 1015.7
20260905144536 78 186 3.5 7.8 0.00 0.00 0.00 36 1015.8
20260905143038 78 194 3.5 7.0 0.00 0.00 0.00 38 1016.1
20260905141534 77 227 2.6 6.1 0.00 0.00 0.00 39 1016.0
20260905140035 75 211 2.6 6.1 0.00 0.00 0.00 40 1015.8
20260905134542 75 202 3.5 7.0 0.00 0.00 0.00 40 1015.8
20260905133030 74 203 4.3 7.8 0.00 0.00 0.00 42 1015.8
20260905131533 73 174 1.7 4.3 0.00 0.00 0.00 42 1015.8
20260905130028 73 194 1.7 8.7 0.00 0.00 0.00 43 1015.5
20260905124526 74 194 3.5 7.0 0.00 0.00 0.00 45 1015.5
20260905123023 74 141 3.5 7.0 0.00 0.00 0.00 46 1015.6
20260905121520 74 150 3.5 8.7 0.00 0.00 0.00 47 1015.3
20260905120024 75 140 4.3 7.8 0.00 0.00 0.00 47 1015.0
20260905114516 75 141 2.6 10.4 0.00 0.00 0.00 48 1015.2
20260905113014 75 165 1.7 7.8 0.00 0.00 0.00 48 1015.1
20260905111513 76 132 3.5 8.7 0.00 0.00 0.00 48 1014.8
20260905110013 76 152 2.6 6.1 0.00 0.00 0.00 48 1014.7
20260905104511 76 180 2.6 7.0 0.00 0.00 0.00 47 1014.7
20260905103010 76 131 0.9 3.5 0.00 0.00 0.00 47 1014.8
20260905101510 76 119 1.7 5.2 0.00 0.00 0.00 48 1014.7
20260905100009 76 111 0.9 1.7 0.00 0.00 0.00 48 1014.8
20260905094512 76 120 0.0 3.5 0.00 0.00 0.00 48 1014.9
20260905093008 75 124 0.0 2.6 0.00 0.00 0.00 46 1014.7
20260905091508 75 178 0.0 0.0 0.00 0.00 0.00 47 1014.6